Time,TemperatureF,DewpointF,PressureIn,WindDirection,WindDirectionDegrees,WindSpeedMPH,WindSpeedGustMPH,Humidity,HourlyPrecipIn,Conditions,Clouds,dailyrainin,SolarRadiationWatts/m^2,SoftwareType,DateUTC
2013-11-22 00:04:00,58.2,56.2,30.15,South,177,2.0,4.0,93,0.00,,,0.18,0,Wunderground v.1.15,2013-11-22 06:04:00,
2013-11-22 00:10:00,58.2,56.2,30.15,South,175,2.0,2.0,93,0.00,,,0.00,0,Wunderground v.1.15,2013-11-22 06:10:00,
2013-11-22 00:16:00,58.2,56.2,30.15,SSW,207,2.0,2.0,93,0.00,,,0.00,0,Wunderground v.1.15,2013-11-22 06:16:00,
2013-11-22 00:22:00,58.2,56.2,30.14,SSW,200,2.0,2.0,93,0.00,,,0.00,0,Wunderground v.1.15,2013-11-22 06:22:00,
2013-11-22 00:28:00,58.2,56.2,30.14,SW,220,2.0,3.0,93,0.00,,,0.00,0,Wunderground v.1.15,2013-11-22 06:28:00,
2013-11-22 00:34:00,58.2,56.2,30.15,South,178,2.0,7.0,93,0.00,,,0.00,0,Wunderground v.1.15,2013-11-22 06:34:00,
2013-11-22 00:39:00,58.2,56.2,30.15,SSW,198,1.0,7.0,93,0.00,,,0.00,0,Wunderground v.1.15,2013-11-22 06:39:00,
2013-11-22 00:45:00,58.2,56.2,30.16,SW,231,1.0,7.0,93,0.00,,,0.00,0,Wunderground v.1.15,2013-11-22 06:45:00,
2013-11-22 00:51:00,58.2,56.2,30.16,SSW,192,1.0,7.0,93,0.00,,,0.00,0,Wunderground v.1.15,2013-11-22 06:51:00,
2013-11-22 00:57:00,58.2,56.5,30.16,South,171,1.0,7.0,94,0.00,,,0.00,0,Wunderground v.1.15,2013-11-22 06:57:00,
2013-11-22 01:03:00,58.2,56.5,30.15,SSW,194,2.0,3.0,94,0.00,,,0.00,0,Wunderground v.1.15,2013-11-22 07:03:00,
2013-11-22 01:09:00,58.3,56.3,30.16,South,188,2.0,3.0,93,0.00,,,0.00,0,Wunderground v.1.15,2013-11-22 07:09:00,
2013-11-22 01:15:00,58.3,56.3,30.16,SW,219,1.0,2.0,93,0.00,,,0.00,0,Wunderground v.1.15,2013-11-22 07:15:00,
2013-11-22 01:21:00,58.3,56.3,30.16,South,176,1.0,1.0,93,0.00,,,0.00,0,Wunderground v.1.15,2013-11-22 07:21:00,
2013-11-22 01:27:00,58.3,56.3,30.16,South,184,1.0,3.0,93,0.00,,,0.00,0,Wunderground v.1.15,2013-11-22 07:27:00,
2013-11-22 01:33:00,58.3,56.6,30.16,SW,223,1.0,6.0,94,0.00,,,0.00,0,Wunderground v.1.15,2013-11-22 07:33:00,
2013-11-22 01:39:00,58.2,56.5,30.16,SSW,211,1.0,6.0,94,0.00,,,0.00,0,Wunderground v.1.15,2013-11-22 07:39:00,
2013-11-22 01:45:00,58.2,56.5,30.17,SW,231,1.0,6.0,94,0.00,,,0.00,0,Wunderground v.1.15,2013-11-22 07:45:00,
2013-11-22 01:51:00,58.2,56.5,30.16,SSW,192,1.0,6.0,94,0.00,,,0.00,0,Wunderground v.1.15,2013-11-22 07:51:00,
2013-11-22 01:57:00,58.2,56.5,30.17,South,188,1.0,6.0,94,0.00,,,0.00,0,Wunderground v.1.15,2013-11-22 07:57:00,
2013-11-22 02:03:00,58.2,56.5,30.17,SSW,202,1.0,1.0,94,0.00,,,0.00,0,Wunderground v.1.15,2013-11-22 08:03:00,
2013-11-22 02:08:00,58.2,56.5,30.17,SW,226,1.0,1.0,94,0.00,,,0.00,0,Wunderground v.1.15,2013-11-22 08:08:00,
2013-11-22 02:14:00,58.2,56.5,30.17,SSW,203,1.0,2.0,94,0.00,,,0.00,0,Wunderground v.1.15,2013-11-22 08:14:00,
2013-11-22 02:20:00,58.1,56.4,30.16,SSW,197,1.0,2.0,94,0.00,,,0.00,0,Wunderground v.1.15,2013-11-22 08:20:00,
2013-11-22 02:25:00,58.1,56.4,30.16,SSW,202,1.0,2.0,94,0.00,,,0.01,0,Wunderground v.1.15,2013-11-22 08:25:00,
2013-11-22 02:31:00,58.1,56.4,30.16,South,180,0.0,4.0,94,0.06,,,0.02,0,Wunderground v.1.15,2013-11-22 08:31:00,
2013-11-22 02:37:00,58.0,56.6,30.16,South,180,0.0,4.0,95,0.06,,,0.02,0,Wunderground v.1.15,2013-11-22 08:37:00,
2013-11-22 02:43:00,57.9,56.5,30.16,South,180,0.0,4.0,95,0.05,,,0.02,0,Wunderground v.1.15,2013-11-22 08:43:00,
2013-11-22 02:50:00,57.8,56.4,30.16,South,185,0.0,4.0,95,0.00,,,0.02,0,Wunderground v.1.15,2013-11-22 08:50:00,
2013-11-22 02:56:00,57.7,56.3,30.16,South,185,0.0,4.0,95,0.00,,,0.02,0,Wunderground v.1.15,2013-11-22 08:56:00,
2013-11-22 03:02:00,57.7,56.6,30.16,South,185,0.0,1.0,96,0.17,,,0.04,0,Wunderground v.1.15,2013-11-22 09:02:00,
2013-11-22 03:07:00,57.6,56.5,30.16,South,185,0.0,1.0,96,0.08,,,0.05,0,Wunderground v.1.15,2013-11-22 09:07:00,
2013-11-22 03:13:00,57.6,56.5,30.16,South,185,0.0,0.0,96,0.93,,,0.08,0,Wunderground v.1.15,2013-11-22 09:13:00,
2013-11-22 03:19:00,57.5,56.4,30.16,South,185,0.0,1.0,96,0.14,,,0.11,0,Wunderground v.1.15,2013-11-22 09:19:00,
2013-11-22 03:25:00,57.5,56.4,30.16,South,185,0.0,1.0,96,0.10,,,0.11,0,Wunderground v.1.15,2013-11-22 09:25:00,
2013-11-22 03:31:00,57.5,56.7,30.16,South,185,0.0,4.0,97,0.05,,,0.12,0,Wunderground v.1.15,2013-11-22 09:31:00,
2013-11-22 03:37:00,57.4,56.6,30.16,South,185,1.0,4.0,97,0.05,,,0.12,0,Wunderground v.1.15,2013-11-22 09:37:00,
2013-11-22 03:42:00,57.4,56.6,30.16,SSW,202,0.0,4.0,97,0.05,,,0.13,0,Wunderground v.1.15,2013-11-22 09:42:00,
2013-11-22 03:48:00,57.4,56.6,30.16,SSW,202,0.0,4.0,97,0.05,,,0.13,0,Wunderground v.1.15,2013-11-22 09:48:00,
2013-11-22 03:53:00,57.3,56.5,30.16,SSW,202,0.0,4.0,97,0.05,,,0.13,0,Wunderground v.1.15,2013-11-22 09:53:00,
2013-11-22 03:59:00,57.3,56.5,30.16,SSW,202,0.0,4.0,97,0.04,,,0.14,0,Wunderground v.1.15,2013-11-22 09:59:00,
2013-11-22 04:05:00,57.3,56.5,30.16,SSW,204,0.0,1.0,97,0.04,,,0.14,0,Wunderground v.1.15,2013-11-22 10:05:00,
2013-11-22 04:11:00,57.3,56.5,30.17,SSW,204,0.0,0.0,97,0.04,,,0.14,0,Wunderground v.1.15,2013-11-22 10:11:00,
2013-11-22 04:17:00,57.3,56.5,30.17,SSW,206,0.0,1.0,97,0.00,,,0.15,0,Wunderground v.1.15,2013-11-22 10:17:00,
2013-11-22 04:23:00,57.3,56.5,30.17,SSW,206,0.0,0.0,97,0.14,,,0.16,0,Wunderground v.1.15,2013-11-22 10:23:00,
2013-11-22 04:29:00,57.3,56.5,30.17,SSW,206,0.0,0.0,97,0.25,,,0.19,0,Wunderground v.1.15,2013-11-22 10:29:00,
2013-11-22 04:43:00,57.3,56.5,30.17,SSW,206,0.0,2.0,97,0.10,,,0.23,0,Wunderground v.1.15,2013-11-22 10:43:00,
2013-11-22 04:48:00,57.3,56.5,30.17,SSW,206,0.0,2.0,97,0.10,,,0.24,0,Wunderground v.1.15,2013-11-22 10:48:00,
2013-11-22 04:54:00,57.3,56.5,30.17,West,276,0.0,2.0,97,0.05,,,0.24,0,Wunderground v.1.15,2013-11-22 10:54:00,
2013-11-22 05:00:00,57.3,56.5,30.18,WNW,292,1.0,1.0,97,0.05,,,0.25,0,Wunderground v.1.15,2013-11-22 11:00:00,
2013-11-22 05:06:00,57.3,56.5,30.18,WNW,291,2.0,3.0,97,0.05,,,0.25,0,Wunderground v.1.15,2013-11-22 11:06:00,
2013-11-22 05:12:00,57.3,56.5,30.17,WNW,292,1.0,1.0,97,0.04,,,0.26,0,Wunderground v.1.15,2013-11-22 11:12:00,
2013-11-22 05:17:00,57.2,56.4,30.17,WNW,291,0.0,1.0,97,0.04,,,0.26,0,Wunderground v.1.15,2013-11-22 11:17:00,
2013-11-22 05:23:00,57.2,56.4,30.17,WNW,291,0.0,0.0,97,0.04,,,0.26,0,Wunderground v.1.15,2013-11-22 11:23:00,
2013-11-22 05:29:00,57.2,56.4,30.17,WNW,292,0.0,0.0,97,0.00,,,0.26,0,Wunderground v.1.15,2013-11-22 11:29:00,
2013-11-22 05:35:00,57.2,56.4,30.17,WNW,292,0.0,2.0,97,0.00,,,0.26,0,Wunderground v.1.15,2013-11-22 11:35:00,
2013-11-22 05:41:00,57.2,56.4,30.18,WNW,292,0.0,2.0,97,0.00,,,0.26,0,Wunderground v.1.15,2013-11-22 11:41:00,
2013-11-22 05:47:00,57.2,56.4,30.18,WNW,292,0.0,2.0,97,0.00,,,0.27,0,Wunderground v.1.15,2013-11-22 11:47:00,
2013-11-22 05:53:00,57.2,56.4,30.18,WNW,291,0.0,2.0,97,0.00,,,0.27,0,Wunderground v.1.15,2013-11-22 11:53:00,
2013-11-22 05:58:00,57.2,56.4,30.18,WNW,291,0.0,2.0,97,0.00,,,0.27,0,Wunderground v.1.15,2013-11-22 11:58:00,
2013-11-22 06:04:00,57.2,56.4,30.18,WNW,291,0.0,0.0,97,0.00,,,0.27,0,Wunderground v.1.15,2013-11-22 12:04:00,
2013-11-22 06:10:00,57.2,56.4,30.18,WNW,291,0.0,0.0,97,0.00,,,0.27,0,Wunderground v.1.15,2013-11-22 12:10:00,
2013-11-22 06:16:00,57.1,56.3,30.18,WNW,292,0.0,1.0,97,0.00,,,0.28,0,Wunderground v.1.15,2013-11-22 12:16:00,
2013-11-22 06:22:00,57.0,56.2,30.18,WNW,291,1.0,2.0,97,0.00,,,0.28,0,Wunderground v.1.15,2013-11-22 12:22:00,
2013-11-22 06:28:00,56.9,56.1,30.19,NW,315,1.0,2.0,97,0.00,,,0.28,0,Wunderground v.1.15,2013-11-22 12:28:00,
2013-11-22 06:34:00,57.0,56.4,30.19,NW,315,2.0,3.0,98,0.00,,,0.28,0,Wunderground v.1.15,2013-11-22 12:34:00,
2013-11-22 06:40:00,57.2,56.6,30.19,NNW,335,3.0,5.0,98,0.00,,,0.28,0,Wunderground v.1.15,2013-11-22 12:40:00,
2013-11-22 06:45:00,57.1,56.5,30.19,NW,318,4.0,5.0,98,0.00,,,0.28,0,Wunderground v.1.15,2013-11-22 12:45:00,
2013-11-22 06:51:00,57.1,56.5,30.20,North,355,5.0,7.0,98,0.00,,,0.28,0,Wunderground v.1.15,2013-11-22 12:51:00,
2013-11-22 06:57:00,56.7,55.9,30.20,North,9,5.0,7.0,97,0.00,,,0.28,0,Wunderground v.1.15,2013-11-22 12:57:00,
2013-11-22 07:03:00,56.1,55.0,30.20,NNW,342,6.0,9.0,96,0.00,,,0.28,0,Wunderground v.1.15,2013-11-22 13:03:00,
2013-11-22 07:09:00,55.8,55.0,30.21,North,5,5.0,9.0,97,0.00,,,0.28,0,Wunderground v.1.15,2013-11-22 13:09:00,
2013-11-22 07:15:00,55.6,54.8,30.21,NNW,340,5.0,6.0,97,0.00,,,0.28,0,Wunderground v.1.15,2013-11-22 13:15:00,
2013-11-22 07:21:00,55.4,54.6,30.22,NNW,327,6.0,6.0,97,0.00,,,0.28,5,Wunderground v.1.15,2013-11-22 13:21:00,
2013-11-22 07:27:00,55.3,54.5,30.22,NNW,348,5.0,6.0,97,0.00,,,0.28,5,Wunderground v.1.15,2013-11-22 13:27:00,
2013-11-22 07:33:00,55.2,54.4,30.22,NW,320,4.0,6.0,97,0.00,,,0.29,9,Wunderground v.1.15,2013-11-22 13:33:00,
2013-11-22 07:39:00,55.1,54.3,30.22,North,355,4.0,8.0,97,0.11,,,0.30,11,Wunderground v.1.15,2013-11-22 13:39:00,
2013-11-22 07:44:00,54.9,54.1,30.22,NNW,338,4.0,10.0,97,0.07,,,0.30,12,Wunderground v.1.15,2013-11-22 13:44:00,
2013-11-22 07:50:00,54.8,53.7,30.23,NNW,347,5.0,5.0,96,0.04,,,0.30,9,Wunderground v.1.15,2013-11-22 13:50:00,
2013-11-22 07:56:00,54.7,53.6,30.23,NNE,19,4.0,6.0,96,0.00,,,0.30,9,Wunderground v.1.15,2013-11-22 13:56:00,
2013-11-22 08:02:00,54.6,53.5,30.23,NNE,15,4.0,5.0,96,0.00,,,0.30,11,Wunderground v.1.15,2013-11-22 14:02:00,
2013-11-22 08:08:00,54.5,53.4,30.24,North,350,4.0,6.0,96,0.00,,,0.30,18,Wunderground v.1.15,2013-11-22 14:08:00,
2013-11-22 08:14:00,54.4,53.3,30.24,NNW,342,4.0,8.0,96,0.00,,,0.30,21,Wunderground v.1.15,2013-11-22 14:14:00,
2013-11-22 08:20:00,54.3,53.2,30.24,NNE,29,4.0,5.0,96,0.00,,,0.30,23,Wunderground v.1.15,2013-11-22 14:20:00,
2013-11-22 08:25:00,54.2,53.1,30.24,NNE,22,4.0,5.0,96,0.00,,,0.30,28,Wunderground v.1.15,2013-11-22 14:25:00,
2013-11-22 08:31:00,54.2,53.1,30.24,NNW,344,3.0,8.0,96,0.00,,,0.30,39,Wunderground v.1.15,2013-11-22 14:31:00,
2013-11-22 08:37:00,54.1,53.0,30.25,NNE,15,3.0,8.0,96,0.00,,,0.30,44,Wunderground v.1.15,2013-11-22 14:37:00,
2013-11-22 08:43:00,53.9,52.5,30.25,NNE,30,5.0,8.0,95,0.00,,,0.31,49,Wunderground v.1.15,2013-11-22 14:43:00,
2013-11-22 08:49:00,53.8,52.4,30.25,NNE,17,5.0,8.0,95,0.00,,,0.31,44,Wunderground v.1.15,2013-11-22 14:49:00,
2013-11-22 08:55:00,53.6,52.2,30.25,North,5,5.0,10.0,95,0.00,,,0.31,40,Wunderground v.1.15,2013-11-22 14:55:00,
2013-11-22 09:00:00,53.5,52.1,30.26,North,355,5.0,6.0,95,0.00,,,0.31,32,Wunderground v.1.15,2013-11-22 15:00:00,
2013-11-22 09:06:00,53.4,52.0,30.26,North,355,5.0,8.0,95,0.00,,,0.31,18,Wunderground v.1.15,2013-11-22 15:06:00,
2013-11-22 09:12:00,53.3,52.2,30.26,North,5,4.0,4.0,96,0.00,,,0.31,23,Wunderground v.1.15,2013-11-22 15:12:00,
2013-11-22 09:18:00,53.2,52.1,30.26,North,10,3.0,4.0,96,0.00,,,0.31,40,Wunderground v.1.15,2013-11-22 15:18:00,
2013-11-22 09:24:00,53.1,51.7,30.26,North,9,4.0,5.0,95,0.00,,,0.31,40,Wunderground v.1.15,2013-11-22 15:24:00,
2013-11-22 09:30:00,53.0,51.9,30.27,North,350,4.0,4.0,96,0.00,,,0.31,18,Wunderground v.1.15,2013-11-22 15:30:00,
2013-11-22 09:36:00,52.9,51.8,30.27,North,5,3.0,9.0,96,0.00,,,0.31,47,Wunderground v.1.15,2013-11-22 15:36:00,
2013-11-22 09:42:00,52.9,51.8,30.27,NNW,348,3.0,9.0,96,0.00,,,0.31,42,Wunderground v.1.15,2013-11-22 15:42:00,
2013-11-22 09:47:00,52.8,51.4,30.28,NE,40,4.0,10.0,95,0.00,,,0.32,56,Wunderground v.1.15,2013-11-22 15:47:00,
2013-11-22 09:53:00,52.6,51.2,30.28,NE,35,5.0,9.0,95,0.00,,,0.32,88,Wunderground v.1.15,2013-11-22 15:53:00,
2013-11-22 09:59:00,52.6,51.2,30.28,NE,35,5.0,9.0,95,0.00,,,0.32,109,Wunderground v.1.15,2013-11-22 15:59:00,
2013-11-22 10:05:00,52.5,51.1,30.28,North,5,4.0,6.0,95,0.00,,,0.32,67,Wunderground v.1.15,2013-11-22 16:05:00,
2013-11-22 10:11:00,52.5,51.1,30.28,North,9,4.0,4.0,95,0.00,,,0.32,77,Wunderground v.1.15,2013-11-22 16:11:00,
2013-11-22 10:16:00,52.6,51.2,30.28,North,349,4.0,8.0,95,0.00,,,0.32,60,Wunderground v.1.15,2013-11-22 16:16:00,
2013-11-22 10:22:00,52.4,51.0,30.29,North,360,5.0,8.0,95,0.00,,,0.32,33,Wunderground v.1.15,2013-11-22 16:22:00,
2013-11-22 10:28:00,52.4,51.3,30.29,NNW,338,5.0,8.0,96,0.00,,,0.32,26,Wunderground v.1.15,2013-11-22 16:28:00,
2013-11-22 10:34:00,52.1,50.7,30.29,NNW,342,6.0,11.0,95,0.00,,,0.32,30,Wunderground v.1.15,2013-11-22 16:34:00,
2013-11-22 10:40:00,51.8,50.4,30.29,NNW,329,7.0,7.0,95,0.00,,,0.32,44,Wunderground v.1.15,2013-11-22 16:40:00,
2013-11-22 10:45:00,51.7,50.3,30.29,NNE,14,6.0,11.0,95,0.00,,,0.32,39,Wunderground v.1.15,2013-11-22 16:45:00,
2013-11-22 10:51:00,51.5,50.4,30.29,North,5,5.0,11.0,96,0.00,,,0.32,54,Wunderground v.1.15,2013-11-22 16:51:00,
2013-11-22 10:57:00,51.3,49.9,30.29,North,351,5.0,11.0,95,0.00,,,0.32,42,Wunderground v.1.15,2013-11-22 16:57:00,
2013-11-22 11:03:00,51.1,49.7,30.29,NE,37,6.0,7.0,95,0.00,,,0.32,40,Wunderground v.1.15,2013-11-22 17:03:00,
2013-11-22 11:09:00,51.0,49.9,30.29,NNW,344,5.0,9.0,96,0.00,,,0.32,51,Wunderground v.1.15,2013-11-22 17:09:00,
2013-11-22 11:15:00,50.8,49.4,30.29,NNW,347,5.0,8.0,95,0.00,,,0.32,56,Wunderground v.1.15,2013-11-22 17:15:00,
2013-11-22 11:21:00,50.7,49.3,30.28,North,5,4.0,7.0,95,0.00,,,0.32,130,Wunderground v.1.15,2013-11-22 17:21:00,
2013-11-22 11:27:00,50.7,49.3,30.29,NNW,333,5.0,8.0,95,0.00,,,0.32,76,Wunderground v.1.15,2013-11-22 17:27:00,
2013-11-22 11:32:00,50.6,48.9,30.29,NNW,336,6.0,14.0,94,0.00,,,0.32,79,Wunderground v.1.15,2013-11-22 17:32:00,
2013-11-22 11:38:00,50.5,49.1,30.28,NNE,24,5.0,14.0,95,0.00,,,0.32,90,Wunderground v.1.15,2013-11-22 17:38:00,
2013-11-22 11:44:00,50.5,49.1,30.28,NNE,23,4.0,14.0,95,0.00,,,0.32,120,Wunderground v.1.15,2013-11-22 17:44:00,
2013-11-22 11:50:00,50.6,49.2,30.28,NNE,13,4.0,14.0,95,0.00,,,0.32,47,Wunderground v.1.15,2013-11-22 17:50:00,
2013-11-22 11:56:00,50.4,48.7,30.28,North,355,4.0,14.0,94,0.00,,,0.32,32,Wunderground v.1.15,2013-11-22 17:56:00,
2013-11-22 12:02:00,50.0,48.1,30.28,North,355,6.0,10.0,93,0.00,,,0.32,63,Wunderground v.1.15,2013-11-22 18:02:00,
2013-11-22 12:08:00,50.0,48.3,30.28,NNW,327,5.0,10.0,94,0.00,,,0.32,107,Wunderground v.1.15,2013-11-22 18:08:00,
2013-11-22 12:14:00,50.1,48.4,30.28,North,355,4.0,5.0,94,0.00,,,0.32,37,Wunderground v.1.15,2013-11-22 18:14:00,
2013-11-22 12:20:00,49.8,48.1,30.29,NNW,333,6.0,9.0,94,0.00,,,0.32,23,Wunderground v.1.15,2013-11-22 18:20:00,
2013-11-22 12:26:00,49.1,47.4,30.28,NNE,28,8.0,13.0,94,0.00,,,0.32,25,Wunderground v.1.15,2013-11-22 18:26:00,
2013-11-22 12:31:00,48.7,47.3,30.29,North,5,9.0,12.0,95,0.00,,,0.32,26,Wunderground v.1.15,2013-11-22 18:31:00,
2013-11-22 12:37:00,48.6,47.2,30.29,North,11,7.0,12.0,95,0.00,,,0.32,25,Wunderground v.1.15,2013-11-22 18:37:00,
2013-11-22 12:43:00,48.3,46.7,30.29,NNE,24,6.0,12.0,94,0.00,,,0.32,26,Wunderground v.1.15,2013-11-22 18:43:00,
2013-11-22 12:49:00,48.1,46.2,30.29,North,355,7.0,13.0,93,0.00,,,0.32,44,Wunderground v.1.15,2013-11-22 18:49:00,
2013-11-22 12:55:00,48.0,46.1,30.30,NNE,16,7.0,12.0,93,0.00,,,0.32,54,Wunderground v.1.15,2013-11-22 18:55:00,
2013-11-22 13:00:00,47.9,46.0,30.30,North,5,6.0,6.0,93,0.00,,,0.32,60,Wunderground v.1.15,2013-11-22 19:00:00,
2013-11-22 13:05:00,47.9,46.3,30.30,NNW,344,6.0,10.0,94,0.00,,,0.32,28,Wunderground v.1.15,2013-11-22 19:05:00,
2013-11-22 13:11:00,47.8,46.2,30.30,North,355,6.0,6.0,94,0.00,,,0.32,26,Wunderground v.1.15,2013-11-22 19:11:00,
2013-11-22 13:17:00,47.5,45.9,30.30,North,360,6.0,12.0,94,0.00,,,0.32,37,Wunderground v.1.15,2013-11-22 19:17:00,
2013-11-22 13:23:00,47.3,45.7,30.30,NE,35,7.0,7.0,94,0.00,,,0.32,39,Wunderground v.1.15,2013-11-22 19:23:00,
2013-11-22 13:29:00,47.3,45.7,30.30,NNW,336,6.0,7.0,94,0.00,,,0.32,35,Wunderground v.1.15,2013-11-22 19:29:00,
2013-11-22 13:35:00,47.0,45.1,30.30,North,10,6.0,18.0,93,0.00,,,0.32,39,Wunderground v.1.15,2013-11-22 19:35:00,
2013-11-22 13:41:00,46.8,44.9,30.30,NNW,332,7.0,10.0,93,0.00,,,0.32,33,Wunderground v.1.15,2013-11-22 19:41:00,
2013-11-22 13:47:00,46.5,44.6,30.30,North,355,7.0,18.0,93,0.00,,,0.32,35,Wunderground v.1.15,2013-11-22 19:47:00,
2013-11-22 13:52:00,46.4,44.5,30.30,NNE,30,7.0,18.0,93,0.00,,,0.32,35,Wunderground v.1.15,2013-11-22 19:52:00,
2013-11-22 13:58:00,46.4,44.2,30.29,North,5,6.0,18.0,92,0.00,,,0.32,44,Wunderground v.1.15,2013-11-22 19:58:00,
2013-11-22 14:04:00,46.3,44.1,30.29,NNE,13,6.0,7.0,92,0.00,,,0.32,42,Wunderground v.1.15,2013-11-22 20:04:00,
2013-11-22 14:10:00,46.2,44.0,30.30,NNW,348,6.0,6.0,92,0.00,,,0.32,42,Wunderground v.1.15,2013-11-22 20:10:00,
2013-11-22 14:16:00,46.1,43.9,30.29,North,5,6.0,8.0,92,0.00,,,0.32,44,Wunderground v.1.15,2013-11-22 20:16:00,
2013-11-22 14:22:00,46.0,43.8,30.29,NE,49,5.0,7.0,92,0.00,,,0.32,42,Wunderground v.1.15,2013-11-22 20:22:00,
2013-11-22 14:28:00,46.0,43.8,30.29,NNE,30,4.0,7.0,92,0.00,,,0.32,53,Wunderground v.1.15,2013-11-22 20:28:00,
2013-11-22 14:33:00,46.0,43.8,30.29,NNE,26,4.0,16.0,92,0.00,,,0.32,54,Wunderground v.1.15,2013-11-22 20:33:00,
2013-11-22 14:39:00,46.1,44.2,30.30,NNW,327,4.0,16.0,93,0.00,,,0.32,42,Wunderground v.1.15,2013-11-22 20:39:00,
2013-11-22 14:45:00,46.0,43.8,30.30,NNW,332,4.0,16.0,92,0.00,,,0.32,37,Wunderground v.1.15,2013-11-22 20:45:00,
2013-11-22 14:51:00,45.9,43.7,30.31,ENE,65,5.0,16.0,92,0.00,,,0.32,23,Wunderground v.1.15,2013-11-22 20:51:00,
2013-11-22 14:57:00,45.8,43.6,30.31,NNE,19,6.0,16.0,92,0.00,,,0.32,23,Wunderground v.1.15,2013-11-22 20:57:00,
2013-11-22 15:03:00,45.7,43.5,30.31,NNE,19,5.0,7.0,92,0.00,,,0.32,16,Wunderground v.1.15,2013-11-22 21:03:00,
2013-11-22 15:09:00,45.5,43.3,30.32,NNE,32,6.0,7.0,92,0.00,,,0.32,14,Wunderground v.1.15,2013-11-22 21:09:00,
2013-11-22 15:14:00,45.4,42.9,30.32,NNE,15,6.0,13.0,91,0.00,,,0.32,11,Wunderground v.1.15,2013-11-22 21:14:00,
2013-11-22 15:20:00,45.3,42.8,30.32,NE,37,6.0,6.0,91,0.00,,,0.32,16,Wunderground v.1.15,2013-11-22 21:20:00,
2013-11-22 15:26:00,45.3,42.8,30.32,North,355,5.0,7.0,91,0.00,,,0.32,14,Wunderground v.1.15,2013-11-22 21:26:00,
2013-11-22 15:32:00,45.2,43.0,30.32,NNE,26,4.0,12.0,92,0.00,,,0.32,12,Wunderground v.1.15,2013-11-22 21:32:00,
2013-11-22 15:38:00,45.1,42.9,30.32,NNE,16,4.0,12.0,92,0.00,,,0.32,12,Wunderground v.1.15,2013-11-22 21:38:00,
2013-11-22 15:44:00,45.0,42.8,30.32,NNE,17,4.0,12.0,92,0.00,,,0.32,11,Wunderground v.1.15,2013-11-22 21:44:00,
2013-11-22 15:50:00,45.0,42.8,30.33,NNW,344,4.0,12.0,92,0.00,,,0.32,7,Wunderground v.1.15,2013-11-22 21:50:00,
2013-11-22 15:55:00,44.9,42.7,30.33,NNW,344,5.0,12.0,92,0.00,,,0.32,7,Wunderground v.1.15,2013-11-22 21:55:00,
2013-11-22 16:00:00,44.9,42.7,30.33,North,5,4.0,4.0,92,0.00,,,0.32,5,Wunderground v.1.15,2013-11-22 22:00:00,
2013-11-22 16:06:00,44.8,42.6,30.33,NNW,333,4.0,7.0,92,0.00,,,0.32,0,Wunderground v.1.15,2013-11-22 22:06:00,
2013-11-22 16:12:00,44.6,42.4,30.33,NNE,22,4.0,5.0,92,0.00,,,0.32,0,Wunderground v.1.15,2013-11-22 22:12:00,
2013-11-22 16:18:00,44.5,42.3,30.33,North,355,4.0,5.0,92,0.00,,,0.32,0,Wunderground v.1.15,2013-11-22 22:18:00,
2013-11-22 16:24:00,44.5,42.3,30.34,NNE,23,5.0,9.0,92,0.00,,,0.32,0,Wunderground v.1.15,2013-11-22 22:24:00,
2013-11-22 16:30:00,44.5,42.3,30.34,North,360,5.0,5.0,92,0.00,,,0.32,0,Wunderground v.1.15,2013-11-22 22:30:00,
2013-11-22 16:36:00,44.5,42.0,30.35,NNE,32,4.0,17.0,91,0.00,,,0.32,0,Wunderground v.1.15,2013-11-22 22:36:00,
2013-11-22 16:41:00,44.6,42.1,30.35,North,5,4.0,17.0,91,0.00,,,0.32,0,Wunderground v.1.15,2013-11-22 22:41:00,
2013-11-22 16:47:00,44.5,42.0,30.35,North,5,4.0,17.0,91,0.00,,,0.32,0,Wunderground v.1.15,2013-11-22 22:47:00,
2013-11-22 16:54:00,44.5,42.0,30.35,North,350,4.0,17.0,91,0.00,,,0.32,0,Wunderground v.1.15,2013-11-22 22:54:00,
2013-11-22 16:59:00,44.5,42.0,30.36,NNE,30,4.0,17.0,91,0.00,,,0.32,0,Wunderground v.1.15,2013-11-22 22:59:00,
2013-11-22 17:05:00,44.5,42.0,30.36,North,11,5.0,7.0,91,0.00,,,0.32,0,Wunderground v.1.15,2013-11-22 23:05:00,
2013-11-22 17:11:00,44.5,42.0,30.37,NNW,346,4.0,9.0,91,0.00,,,0.32,0,Wunderground v.1.15,2013-11-22 23:11:00,
2013-11-22 17:17:00,44.4,41.7,30.36,NNE,18,5.0,9.0,90,0.00,,,0.32,0,Wunderground v.1.15,2013-11-22 23:17:00,
2013-11-22 17:23:00,44.3,41.8,30.36,NNE,23,5.0,6.0,91,0.00,,,0.32,0,Wunderground v.1.15,2013-11-22 23:23:00,
2013-11-22 17:29:00,44.3,41.8,30.36,NE,35,4.0,6.0,91,0.00,,,0.32,0,Wunderground v.1.15,2013-11-22 23:29:00,
2013-11-22 17:35:00,44.2,41.5,30.37,North,360,5.0,14.0,90,0.00,,,0.32,0,Wunderground v.1.15,2013-11-22 23:35:00,
2013-11-22 17:40:00,44.2,41.5,30.37,NNW,348,5.0,5.0,90,0.00,,,0.32,0,Wunderground v.1.15,2013-11-22 23:40:00,
2013-11-22 17:46:00,44.1,41.4,30.37,North,5,4.0,14.0,90,0.00,,,0.32,0,Wunderground v.1.15,2013-11-22 23:46:00,
2013-11-22 17:52:00,44.0,41.3,30.36,North,360,4.0,14.0,90,0.00,,,0.32,0,Wunderground v.1.15,2013-11-22 23:52:00,
2013-11-22 17:58:00,43.9,41.2,30.36,NNE,17,4.0,14.0,90,0.00,,,0.32,0,Wunderground v.1.15,2013-11-22 23:58:00,
2013-11-22 18:04:00,43.9,41.4,30.37,North,360,5.0,7.0,91,0.00,,,0.32,0,Wunderground v.1.15,2013-11-23 00:04:00,
2013-11-22 18:10:00,43.8,41.1,30.37,ENE,62,3.0,3.0,90,0.00,,,0.32,0,Wunderground v.1.15,2013-11-23 00:10:00,
2013-11-22 18:16:00,43.8,41.1,30.37,NNE,13,3.0,10.0,90,0.00,,,0.32,0,Wunderground v.1.15,2013-11-23 00:16:00,
2013-11-22 18:21:00,43.8,41.1,30.37,North,9,3.0,7.0,90,0.00,,,0.32,0,Wunderground v.1.15,2013-11-23 00:21:00,
2013-11-22 18:27:00,43.7,41.0,30.38,North,355,5.0,11.0,90,0.00,,,0.32,0,Wunderground v.1.15,2013-11-23 00:27:00,
2013-11-22 18:33:00,43.5,40.5,30.37,NNE,22,6.0,14.0,89,0.00,,,0.32,0,Wunderground v.1.15,2013-11-23 00:33:00,
2013-11-22 18:39:00,43.4,40.7,30.37,NNE,15,6.0,14.0,90,0.00,,,0.32,0,Wunderground v.1.15,2013-11-23 00:39:00,
2013-11-22 18:45:00,43.3,40.6,30.37,North,10,5.0,11.0,90,0.00,,,0.32,0,Wunderground v.1.15,2013-11-23 00:45:00,
2013-11-22 18:51:00,43.3,40.6,30.37,NE,53,5.0,11.0,90,0.00,,,0.32,0,Wunderground v.1.15,2013-11-23 00:51:00,
2013-11-22 18:57:00,43.2,40.5,30.37,North,5,4.0,11.0,90,0.00,,,0.32,0,Wunderground v.1.15,2013-11-23 00:57:00,
2013-11-22 19:03:00,43.2,40.2,30.37,NNE,27,4.0,6.0,89,0.00,,,0.32,0,Wunderground v.1.15,2013-11-23 01:03:00,
2013-11-22 19:09:00,43.2,40.2,30.37,NE,34,5.0,9.0,89,0.00,,,0.32,0,Wunderground v.1.15,2013-11-23 01:09:00,
2013-11-22 19:14:00,43.2,40.2,30.37,NE,51,4.0,7.0,89,0.00,,,0.32,0,Wunderground v.1.15,2013-11-23 01:14:00,
2013-11-22 19:20:00,43.1,40.1,30.37,North,5,4.0,4.0,89,0.00,,,0.32,0,Wunderground v.1.15,2013-11-23 01:20:00,
2013-11-22 19:26:00,43.1,40.1,30.38,NNE,26,4.0,10.0,89,0.00,,,0.32,0,Wunderground v.1.15,2013-11-23 01:26:00,
2013-11-22 19:32:00,43.0,40.0,30.39,NNW,346,6.0,14.0,89,0.00,,,0.32,0,Wunderground v.1.15,2013-11-23 01:32:00,
2013-11-22 19:38:00,42.9,39.9,30.39,NNE,26,5.0,14.0,89,0.00,,,0.32,0,Wunderground v.1.15,2013-11-23 01:38:00,
2013-11-22 19:44:00,42.9,39.9,30.40,NNE,24,6.0,14.0,89,0.00,,,0.32,0,Wunderground v.1.15,2013-11-23 01:44:00,
2013-11-22 19:50:00,42.9,39.9,30.39,NNE,24,5.0,5.0,89,0.00,,,0.32,0,Wunderground v.1.15,2013-11-23 01:50:00,
2013-11-22 19:55:00,42.8,39.8,30.38,NNE,18,4.0,14.0,89,0.00,,,0.32,0,Wunderground v.1.15,2013-11-23 01:55:00,
2013-11-22 20:00:00,42.7,39.7,30.38,NE,55,4.0,6.0,89,0.00,,,0.32,0,Wunderground v.1.15,2013-11-23 02:00:00,
2013-11-22 20:06:00,42.8,39.5,30.38,NNE,18,5.0,7.0,88,0.00,,,0.32,0,Wunderground v.1.15,2013-11-23 02:06:00,
2013-11-22 20:12:00,42.7,39.7,30.38,NNW,342,4.0,5.0,89,0.00,,,0.32,0,Wunderground v.1.15,2013-11-23 02:12:00,
2013-11-22 20:18:00,42.7,39.4,30.39,North,5,4.0,10.0,88,0.00,,,0.32,0,Wunderground v.1.15,2013-11-23 02:18:00,
2013-11-22 20:24:00,42.7,39.7,30.39,NNE,17,4.0,5.0,89,0.00,,,0.32,0,Wunderground v.1.15,2013-11-23 02:24:00,
2013-11-22 20:29:00,42.5,39.8,30.38,North,11,3.0,6.0,90,0.00,,,0.32,0,Wunderground v.1.15,2013-11-23 02:29:00,
2013-11-22 20:35:00,42.4,39.4,30.39,NNE,30,4.0,13.0,89,0.00,,,0.32,0,Wunderground v.1.15,2013-11-23 02:35:00,
2013-11-22 20:41:00,42.4,39.7,30.38,NNE,30,3.0,13.0,90,0.00,,,0.32,0,Wunderground v.1.15,2013-11-23 02:41:00,
2013-11-22 20:47:00,42.3,39.6,30.38,ENE,77,3.0,13.0,90,0.00,,,0.32,0,Wunderground v.1.15,2013-11-23 02:47:00,
2013-11-22 20:53:00,42.3,39.6,30.39,NNE,27,3.0,13.0,90,0.00,,,0.32,0,Wunderground v.1.15,2013-11-23 02:53:00,
2013-11-22 20:59:00,42.2,38.9,30.38,East,80,3.0,13.0,88,0.00,,,0.32,0,Wunderground v.1.15,2013-11-23 02:59:00,
2013-11-22 21:05:00,42.2,38.6,30.40,ENE,65,4.0,7.0,87,0.00,,,0.32,0,Wunderground v.1.15,2013-11-23 03:05:00,
2013-11-22 21:11:00,42.0,38.1,30.39,ENE,57,5.0,5.0,86,0.00,,,0.32,0,Wunderground v.1.15,2013-11-23 03:11:00,
2013-11-22 21:17:00,41.8,37.9,30.40,NNE,14,5.0,6.0,86,0.00,,,0.32,0,Wunderground v.1.15,2013-11-23 03:17:00,
2013-11-22 21:23:00,41.6,38.0,30.40,ENE,63,6.0,11.0,87,0.00,,,0.32,0,Wunderground v.1.15,2013-11-23 03:23:00,
2013-11-22 21:28:00,41.6,38.0,30.41,NE,40,4.0,11.0,87,0.00,,,0.32,0,Wunderground v.1.15,2013-11-23 03:28:00,
2013-11-22 21:34:00,41.5,38.2,30.40,NE,42,3.0,10.0,88,0.00,,,0.32,0,Wunderground v.1.15,2013-11-23 03:34:00,
2013-11-22 21:40:00,41.4,38.1,30.39,ENE,57,4.0,4.0,88,0.00,,,0.32,0,Wunderground v.1.15,2013-11-23 03:40:00,
2013-11-22 21:46:00,41.4,38.1,30.39,NNE,33,4.0,10.0,88,0.00,,,0.32,0,Wunderground v.1.15,2013-11-23 03:46:00,
2013-11-22 21:52:00,41.3,38.0,30.40,NNE,27,4.0,10.0,88,0.00,,,0.32,0,Wunderground v.1.15,2013-11-23 03:52:00,
2013-11-22 21:58:00,41.3,38.3,30.39,ENE,61,4.0,10.0,89,0.00,,,0.32,0,Wunderground v.1.15,2013-11-23 03:58:00,
2013-11-22 22:04:00,41.3,38.3,30.39,NNE,30,3.0,4.0,89,0.00,,,0.32,0,Wunderground v.1.15,2013-11-23 04:04:00,
2013-11-22 22:09:00,41.3,38.3,30.39,North,5,3.0,6.0,89,0.00,,,0.32,0,Wunderground v.1.15,2013-11-23 04:09:00,
2013-11-22 22:15:00,41.3,38.3,30.39,NNE,33,3.0,3.0,89,0.00,,,0.32,0,Wunderground v.1.15,2013-11-23 04:15:00,
2013-11-22 22:21:00,41.3,38.3,30.39,NNE,12,2.0,6.0,89,0.00,,,0.32,0,Wunderground v.1.15,2013-11-23 04:21:00,
2013-11-22 22:27:00,41.3,38.3,30.39,North,10,4.0,7.0,89,0.00,,,0.32,0,Wunderground v.1.15,2013-11-23 04:27:00,
2013-11-22 22:33:00,41.2,38.2,30.39,NNE,26,4.0,11.0,89,0.00,,,0.32,0,Wunderground v.1.15,2013-11-23 04:33:00,
2013-11-22 22:39:00,41.2,38.2,30.39,NNE,15,3.0,11.0,89,0.00,,,0.32,0,Wunderground v.1.15,2013-11-23 04:39:00,
2013-11-22 22:45:00,41.2,38.2,30.39,NE,53,3.0,11.0,89,0.00,,,0.32,0,Wunderground v.1.15,2013-11-23 04:45:00,
2013-11-22 22:50:00,41.2,38.2,30.39,ENE,63,3.0,3.0,89,0.00,,,0.32,0,Wunderground v.1.15,2013-11-23 04:50:00,
2013-11-22 22:56:00,41.2,38.2,30.38,ENE,57,2.0,11.0,89,0.00,,,0.32,0,Wunderground v.1.15,2013-11-23 04:56:00,
2013-11-22 23:01:00,41.2,38.2,30.38,NNE,33,1.0,2.0,89,0.00,,,0.32,0,Wunderground v.1.15,2013-11-23 05:01:00,
2013-11-22 23:02:00,41.2,38.2,30.38,NNE,26,1.0,2.0,89,0.00,,,0.32,0,Wunderground v.1.15,2013-11-23 05:02:00,
2013-11-22 23:03:00,41.2,38.2,30.38,NNE,26,1.0,2.0,89,0.00,,,0.32,0,Wunderground v.1.15,2013-11-23 05:03:00,
2013-11-22 23:04:00,41.2,38.2,30.38,ENE,67,1.0,2.0,89,0.00,,,0.32,0,Wunderground v.1.15,2013-11-23 05:04:00,
2013-11-22 23:05:00,41.2,38.2,30.38,ENE,67,1.0,2.0,89,0.00,,,0.32,0,Wunderground v.1.15,2013-11-23 05:05:00,
2013-11-22 23:10:00,41.2,38.5,30.38,ENE,61,2.0,2.0,90,0.00,,,0.32,0,Wunderground v.1.15,2013-11-23 05:10:00,
2013-11-22 23:12:00,41.2,38.5,30.39,NE,39,2.0,3.0,90,0.00,,,0.32,0,Wunderground v.1.15,2013-11-23 05:12:00,
2013-11-22 23:18:00,41.2,38.5,30.39,NNE,24,2.0,3.0,90,0.00,,,0.32,0,Wunderground v.1.15,2013-11-23 05:18:00,
2013-11-22 23:23:00,41.2,38.2,30.39,NNE,19,2.0,4.0,89,0.00,,,0.32,0,Wunderground v.1.15,2013-11-23 05:23:00,
2013-11-22 23:29:00,41.2,38.5,30.39,ENE,57,2.0,5.0,90,0.00,,,0.32,0,Wunderground v.1.15,2013-11-23 05:29:00,
2013-11-22 23:35:00,41.2,38.2,30.39,NNE,18,2.0,9.0,89,0.00,,,0.32,0,Wunderground v.1.15,2013-11-23 05:35:00,
2013-11-22 23:41:00,41.3,38.6,30.39,North,355,2.0,9.0,90,0.00,,,0.32,0,Wunderground v.1.15,2013-11-23 05:41:00,
2013-11-22 23:47:00,41.3,38.6,30.39,ENE,61,2.0,9.0,90,0.00,,,0.32,0,Wunderground v.1.15,2013-11-23 05:47:00,
2013-11-22 23:53:00,41.2,38.2,30.39,NNE,17,2.0,9.0,89,0.00,,,0.32,0,Wunderground v.1.15,2013-11-23 05:53:00,
2013-11-22 23:59:00,41.2,38.2,30.39,NNE,19,3.0,9.0,89,0.00,,,0.32,0,Wunderground v.1.15,2013-11-23 05:59:00,